Location: Gleizolles
(44.4833°N, 6.7667°E)
Time: 16:06:48
(UTC+00:00)

Explorer 7 - Pass Details

Date: 20 June 2024
Orbit: 465 x 619 km, 50.3° (Epoch: 12 July)

Event Time Altitude Azimuth Distance (km) Brightness Sun altitude
Rises 13:48:12 0° 282° (WNW) 2,589 10.6 55.6°
Reaches altitude 10° 13:50:35 10° 292° (WNW) 1,682 9.8 55.2°
Maximum altitude 13:54:02 32° 357° (N) 838 8.0 54.7°
Drops below altitude 10° 13:57:23 10° 63° (ENE) 1,633 9.0 54.1°
Sets 13:59:40 0° 74° (ENE) 2,500 9.8 53.8°
